Simultaneous Nadir Overpasses (SNOs) Predictions

Prediction of SNOs between FY3D and TERRA Satellite Orbit:

Table of predicted SNOs for the next 14.0 days since TLE Epoch: 5/25/2024
Index Date (FY3D) Time (FY3D) Lat,Lon (FY3D) SZA (FY3D ) Date (TERRA) Time (TERRA) Lat,Lon (TERRA) SZA (TERRA ) Distance(km) Time Diff (sec)
1 05/25/2024 06:28:58 75.86, 81.97 54.73 05/25/2024 06:30:08 75.78, 83.27 54.66 36.43 70
2 05/25/2024 07:19:36 -75.54,-109.66 125.59 05/25/2024 07:19:35 -75.55,-109.73 125.59 2.01 1
3 05/25/2024 08:10:11 75.03, 59.22 53.91 05/25/2024 08:09:04 75.09, 56.70 53.94 72.55 67
4 05/27/2024 18:32:32 -75.58, 82.03 125.97 05/27/2024 18:32:55 -75.59, 82.01 125.96 0.85 23
5 05/27/2024 19:23:17 75.55,-110.55 53.99 05/27/2024 19:22:16 75.53,-110.50 53.97 2.79 61
6 05/30/2024 05:45:28 -75.63, -86.32 126.30 05/30/2024 05:46:14 -75.64, -86.21 126.29 3.30 46
7 05/30/2024 06:36:12 75.56, 81.24 53.63 05/30/2024 06:35:35 75.57, 81.26 53.64 2.00 37
8 06/01/2024 16:58:23 -75.65, 105.46 126.62 06/01/2024 16:59:33 -75.66, 105.47 126.61 1.67 70
9 06/01/2024 17:49:07 75.58, -87.00 53.31 06/01/2024 17:48:54 75.58, -87.08 53.31 2.37 13
10 06/04/2024 05:02:02 75.60, 104.74 53.03 06/04/2024 05:02:12 75.61, 104.62 53.04 3.08 10
11 06/04/2024 05:52:46 -75.54, -87.76 127.03 06/04/2024 05:51:36 -75.55, -87.88 127.03 3.26 70
12 06/06/2024 16:14:56 75.64, -63.56 52.81 06/06/2024 16:15:28 75.64, -63.64 52.81 2.00 32



Historial Predications of SNOs between FY3D and TERRA
